Location: Artiguedieu
(43.5000°N, 0.5454°E)
Time: 21:03:16
(UTC+00:00)

Transit 2A - Pass Details

Date: 28 July 2021
Orbit: 594 x 964 km, 66.7° (Epoch: 28 September)

Event Time Altitude Azimuth Distance (km) Brightness Sun altitude
Rises 16:11:12 0° 325° (NW) 3,242 9.6 33.2°
Reaches altitude 10° 16:13:31 10° 322° (NW) 2,368 9.1 32.8°
Maximum altitude 16:18:56 63° 243° (WSW) 950 7.6 31.8°
Drops below altitude 10° 16:24:51 10° 164° (SSE) 2,586 8.7 30.7°
Sets 16:27:29 0° 161° (SSE) 3,563 9.3 30.2°
